User: anonymous   Login
Location: Chacón
(10.5789°N, 66.9317°W)
Time: 11:42:18
(UTC+00:00)
Language:

Cosmos 1821 Rocket - Orbit

View from above orbital plane
View from above orbital plane
View from above satellite
View from above satellite

Ground track
Ground track

The orbit data is extracted from the following two-line orbital elements,

1 17526U 87017B   24201.18609261  .00000182  00000-0  16822-3 0  9999
2 17526  82.8999 265.0265 0038900 278.4797  81.1952 13.77081509862629
Epoch (UTC): 19 July 2024 04:27:58
Eccentricity: 0.0038900
inclination: 82.8999°
perigee height: 945 km
apogee height: 1003 km
right ascension of ascending node: 265.0265°
argument of perigee: 278.4797°
revolutions per day: 13.77081509
mean anomaly at epoch: 81.1952°
orbit number at epoch: 86262

The dashed part of the orbit path shows where the satellite is in the earth's shadow,  

DLR